Date,TemperatureHighF,TemperatureAvgF,TemperatureLowF,DewpointHighF,DewpointAvgF,DewpointLowF,HumidityHigh,HumidityAvg,HumidityLow,PressureMaxIn,PressureMinIn,WindSpeedMaxMPH,WindSpeedAvgMPH,GustSpeedMaxMPH,PrecipitationSumIn
2013-9-1,84.8,75.7,71.3,74.3,71.9,68.6,97,88,68,29.87,29.73,14,1,14,0.27
2013-9-2,86.5,75.5,65.0,70.2,67.4,63.3,98,78,48,29.95,29.85,9,1,9,0.00
2013-9-3,87.7,72.6,60.7,68.2,62.6,57.0,97,75,37,30.04,29.94,9,1,9,0.01
2013-9-4,86.8,73.2,63.8,64.1,62.2,58.8,92,71,40,30.10,30.03,7,0,7,0.00
2013-9-5,87.8,71.7,57.3,68.9,61.9,56.5,97,75,42,30.17,30.06,11,1,11,0.00
2013-9-6,91.7,73.2,58.3,68.0,62.8,57.3,97,75,37,30.13,29.98,8,1,8,0.00
2013-9-7,95.7,79.7,62.1,72.1,66.9,60.9,98,69,39,30.02,29.89,8,1,8,0.00
2013-9-8,95.7,84.1,64.7,74.3,70.6,63.8,97,67,42,29.93,29.83,4,1,8,0.00
2013-9-9,96.5,79.7,66.3,71.6,68.3,63.3,97,73,35,29.97,29.88,4,1,10,0.00
2013-9-10,95.7,77.8,63.8,70.6,65.7,60.3,97,71,32,30.08,29.95,5,1,12,0.00
2013-9-11,94.7,78.6,65.1,73.3,68.4,63.6,96,74,42,30.11,29.99,4,0,6,0.00
2013-9-12,92.4,78.8,67.7,73.7,69.1,65.1,96,75,47,30.06,29.93,5,1,12,0.00
2013-9-13,75.8,70.2,64.9,67.5,61.5,54.8,82,74,61,30.05,29.99,3,1,7,0.00
2013-9-14,82.8,69.1,53.9,56.9,54.4,51.8,96,63,37,30.08,29.95,4,1,9,0.00
2013-9-15,91.0,71.6,55.2,69.8,60.5,53.2,96,72,42,30.04,29.96,4,1,8,0.00
2013-9-16,69.9,67.5,65.7,67.1,65.3,63.6,95,93,87,30.10,30.01,3,0,5,0.45
2013-9-20,69.4,62.6,58.8,59.5,57.8,54.0,96,85,67,29.94,29.89,2,1,4,2.14
2013-9-21,76.2,61.5,50.4,57.3,52.0,44.6,97,76,36,30.00,29.89,4,1,11,0.00
2013-9-22,78.6,61.2,49.4,57.7,53.0,48.4,98,78,41,29.99,29.85,3,1,8,0.01
2013-9-23,80.7,63.2,48.1,60.7,55.1,47.3,98,78,45,29.93,29.77,4,1,11,0.00
2013-9-24,76.8,63.6,55.7,61.3,57.6,54.9,97,83,54,29.88,29.80,5,1,11,0.01
2013-9-25,80.2,68.4,54.5,66.0,60.9,53.7,97,79,55,29.86,29.79,3,0,6,0.00
2013-9-26,86.8,69.0,56.5,67.8,60.6,55.7,98,78,41,29.94,29.84,5,1,9,0.01
2013-9-27,87.0,71.5,58.2,68.2,61.8,57.4,97,75,44,30.00,29.88,5,1,11,0.00
2013-9-28,82.2,69.5,62.4,68.8,64.7,61.0,97,86,62,30.01,29.88,4,1,16,0.59
2013-9-29,76.7,64.3,57.0,61.2,58.0,55.5,97,82,49,30.04,29.90,8,1,8,0.01
2013-9-30,83.3,65.2,55.5,69.4,61.1,54.4,98,88,55,29.93,29.81,4,1,7,0.01